Cheboygan, MI

8:43 AM EDT on July 20, 2017 (GMT -0400)
Cheboygan

Weather History for KSLH - August, 2013

Change the Weather History Date:

Saturday, August 31, 2013

  Actual Average (KMCD) Record (KMCD)
Temperature  
Mean Temperature 68 °F -  
Max Temperature 75 °F 70 °F 84 °F (2010)
Min Temperature 60 °F 56 °F 33 °F (2006)
Cooling Degree Days 2    
Growing Degree Days 18 (Base 50)    
Moisture  
Dew Point 61 °F    
Average Humidity 78    
Maximum Humidity 92    
Minimum Humidity 61    
Precipitation  
Precipitation 0.00 in - - ()
Sea Level Pressure  
Sea Level Pressure 29.87 in    
Wind  
Wind Speed 5 mph (NE)    
Max Wind Speed 9 mph    
Max Gust Speed -    
Visibility 10 miles    
Events      
Averages and records for this station are not official NWS values.
T = Trace of Precipitation, MM = Missing Value Source: NWS Daily Summary

Daily Weather History Graph

Daily Weather History Graph

Search for Another Location

Airport or City:

Trip Planner

Search our weather history database for the weather conditions in past years. The results will help you decide how hot, cold, wet, or windy it might be!

Date:

Astronomy

Aug. 31, 2013 Rise Set
Actual Time 6:58 AM EDT 8:17 PM EDT
Civil Twilight 6:27 AM EDT 8:48 PM EDT
Nautical Twilight 5:50 AM EDT 9:24 PM EDT
Astronomical Twilight 5:10 AM EDT 10:04 PM EDT
Moon 2:17 AM EDT (8/31) 5:22 PM EDT (8/31)
Length of Visible Light 14h 20m
Length of Day
13h 19m
Waning Crescent, 21% of the Moon is Illuminated
Aug 31
Waning Crescent
Sep 5
New
Sep 12
First Quarter
Sep 19
Full
Sep 26
Last Quarter

Hourly Weather History & Observations

Time (EDT) Temp. Dew Point Humidity Pressure Visibility Wind Dir Wind Speed Gust Speed Precip Events Conditions
12:15 AM 66.9 °F 63.1 °F 88% 29.86 in 10.0 mi North 4.6 mph - N/A   Scattered Clouds
12:35 AM 67.3 °F 62.6 °F 85% 29.85 in 10.0 mi NNE 4.6 mph - N/A   Clear
12:55 AM 67.1 °F 62.6 °F 85% 29.86 in 10.0 mi North 5.8 mph - N/A   Scattered Clouds
1:15 AM 65.8 °F 62.1 °F 88% 29.86 in 10.0 mi North 3.5 mph - N/A   Clear
1:34 AM 65.3 °F 62.4 °F 90% 29.86 in 10.0 mi North 3.5 mph - N/A   Clear
1:55 AM 66.0 °F 62.6 °F 89% 29.86 in 10.0 mi NNE 4.6 mph - N/A   Scattered Clouds
2:15 AM 66.7 °F 62.8 °F 87% 29.85 in 10.0 mi NNE 5.8 mph - N/A   Overcast
2:34 AM 67.1 °F 62.2 °F 84% 29.86 in 10.0 mi NNE 6.9 mph - N/A   Overcast
2:55 AM 66.7 °F 61.9 °F 84% 29.86 in 10.0 mi NNE 6.9 mph - N/A   Overcast
3:15 AM 66.6 °F 61.9 °F 85% 29.87 in 10.0 mi NNE 4.6 mph - N/A   Overcast
3:35 AM 66.6 °F 61.7 °F 84% 29.87 in 10.0 mi NNE 4.6 mph - N/A   Overcast
3:55 AM 66.4 °F 61.9 °F 85% 29.87 in 10.0 mi NNE 4.6 mph - N/A   Overcast
4:15 AM 66.2 °F 61.0 °F 83% 29.87 in 10.0 mi NNE 6.9 mph - N/A   Overcast
4:35 AM 65.5 °F 59.4 °F 81% 29.87 in 10.0 mi NNE 5.8 mph - N/A   Overcast
4:55 AM 64.6 °F 59.0 °F 82% 29.87 in 10.0 mi NNE 6.9 mph - N/A   Scattered Clouds
5:14 AM 64.4 °F 59.0 °F 83% 29.88 in 10.0 mi NNE 3.5 mph - N/A   Scattered Clouds
5:35 AM 63.9 °F 59.2 °F 85% 29.88 in 10.0 mi NE 5.8 mph - N/A   Mostly Cloudy
5:55 AM 64.6 °F 59.4 °F 83% 29.88 in 10.0 mi NE 5.8 mph - N/A   Overcast
6:14 AM 64.4 °F 59.2 °F 83% 29.89 in 10.0 mi NE 4.6 mph - N/A   Mostly Cloudy
6:35 AM 63.9 °F 59.0 °F 84% 29.89 in 10.0 mi NNE 3.5 mph - N/A   Mostly Cloudy
6:55 AM 63.3 °F 58.8 °F 85% 29.89 in 10.0 mi NE 3.5 mph - N/A   Scattered Clouds
7:15 AM 62.6 °F 58.6 °F 87% 29.90 in 10.0 mi NE 3.5 mph - N/A   Clear
7:35 AM 63.5 °F 59.4 °F 86% 29.90 in 10.0 mi NNE 3.5 mph - N/A   Scattered Clouds
7:55 AM 64.6 °F 60.6 °F 87% 29.90 in 10.0 mi Calm Calm - N/A   Mostly Cloudy
8:15 AM 66.2 °F 60.4 °F 82% 29.90 in 10.0 mi North 4.6 mph - N/A   Overcast
8:35 AM 65.8 °F 60.1 °F 82% 29.90 in 10.0 mi NNE 5.8 mph - N/A   Mostly Cloudy
8:55 AM 66.6 °F 60.3 °F 80% 29.90 in 10.0 mi NNE 4.6 mph - N/A   Mostly Cloudy
9:15 AM 67.5 °F 59.9 °F 77% 29.89 in 10.0 mi NE 6.9 mph - N/A   Mostly Cloudy
9:35 AM 67.1 °F 59.4 °F 76% 29.89 in 10.0 mi ENE 5.8 mph - N/A   Scattered Clouds
9:54 AM 66.9 °F 59.7 °F 78% 29.89 in 10.0 mi East 5.8 mph - N/A   Scattered Clouds
10:15 AM 68.2 °F 60.3 °F 76% 29.89 in 10.0 mi ENE 6.9 mph - N/A   Scattered Clouds
10:35 AM 68.2 °F 60.3 °F 76% 29.89 in 10.0 mi ENE 4.6 mph - N/A   Scattered Clouds
10:55 AM 67.5 °F 60.6 °F 79% 29.89 in 10.0 mi NE 6.9 mph - N/A   Clear
11:15 AM 69.1 °F 61.0 °F 75% 29.89 in 10.0 mi NE 6.9 mph - N/A   Clear
11:35 AM 69.3 °F 61.3 °F 76% 29.89 in 10.0 mi ENE 5.8 mph - N/A   Clear
11:55 AM 69.1 °F 61.0 °F 75% 29.88 in 10.0 mi NE 5.8 mph - N/A   Clear
12:15 PM 69.1 °F 61.5 °F 77% 29.89 in 10.0 mi NE 4.6 mph - N/A   Clear
12:35 PM 70.7 °F 61.3 °F 72% 29.89 in 10.0 mi NE 5.8 mph - N/A   Clear
12:55 PM 70.7 °F 61.2 °F 72% 29.89 in 10.0 mi ENE 6.9 mph - N/A   Clear
1:15 PM 71.1 °F 61.2 °F 71% 29.88 in 10.0 mi NE 4.6 mph - N/A   Clear
1:35 PM 70.9 °F 61.3 °F 72% 29.88 in 10.0 mi NE 4.6 mph - N/A   Clear
1:55 PM 72.5 °F 61.3 °F 68% 29.88 in 10.0 mi Calm Calm - N/A   Clear
2:15 PM 72.9 °F 61.2 °F 67% 29.87 in 10.0 mi Calm Calm - N/A   Clear
2:35 PM 74.1 °F 61.2 °F 64% 29.87 in 10.0 mi North 4.6 mph - N/A   Clear
2:55 PM 73.6 °F 59.5 °F 61% 29.88 in 10.0 mi North 9.2 mph - N/A   Clear
3:14 PM 73.8 °F 60.3 °F 63% 29.88 in 10.0 mi NNE 5.8 mph - N/A   Scattered Clouds
3:35 PM 73.4 °F 60.1 °F 63% 29.87 in 10.0 mi NNE 4.6 mph - N/A   Scattered Clouds
3:55 PM 74.5 °F 60.4 °F 61% 29.87 in 10.0 mi NE 5.8 mph - N/A   Clear
4:15 PM 75.2 °F 60.8 °F 61% 29.87 in 10.0 mi ENE 5.8 mph - N/A   Clear
4:35 PM 73.9 °F 60.8 °F 63% 29.86 in 10.0 mi ENE 4.6 mph - N/A   Clear
4:55 PM 74.7 °F 60.3 °F 61% 29.86 in 10.0 mi ESE 3.5 mph - N/A   Clear
5:15 PM 74.8 °F 60.6 °F 61% 29.86 in 10.0 mi ENE 3.5 mph - N/A   Clear
5:35 PM 74.7 °F 61.0 °F 62% 29.86 in 10.0 mi North 3.5 mph - N/A   Clear
5:54 PM 74.7 °F 61.7 °F 64% 29.85 in 10.0 mi North 6.9 mph - N/A   Clear
6:15 PM 72.1 °F 62.1 °F 70% 29.86 in 10.0 mi North 5.8 mph - N/A   Clear
6:35 PM 71.8 °F 62.1 °F 71% 29.85 in 10.0 mi NNE 5.8 mph - N/A   Clear
6:54 PM 71.1 °F 61.3 °F 71% 29.85 in 10.0 mi NNE 5.8 mph - N/A   Clear
7:15 PM 70.3 °F 61.2 °F 73% 29.84 in 10.0 mi NNE 4.6 mph - N/A   Clear
7:35 PM 69.4 °F 61.0 °F 74% 29.84 in 10.0 mi NE 4.6 mph - N/A   Clear
7:55 PM 68.2 °F 60.8 °F 77% 29.84 in 10.0 mi ENE 4.6 mph - N/A   Clear
8:15 PM 66.9 °F 60.4 °F 80% 29.84 in 10.0 mi East 3.5 mph - N/A   Clear
8:35 PM 66.2 °F 59.5 °F 79% 29.83 in 10.0 mi East 3.5 mph - N/A   Clear
8:55 PM 64.4 °F 59.0 °F 83% 29.84 in 10.0 mi ESE 3.5 mph - N/A   Clear
9:15 PM 63.9 °F 59.4 °F 85% 29.84 in 10.0 mi Calm Calm - N/A   Clear
9:35 PM 62.6 °F 59.4 °F 89% 29.84 in 10.0 mi Calm Calm - N/A   Clear
9:55 PM 63.0 °F 59.0 °F 87% 29.84 in 10.0 mi Calm Calm - N/A   Clear
10:15 PM 62.8 °F 59.2 °F 88% 29.85 in 10.0 mi SSE 3.5 mph - N/A   Clear
10:35 PM 62.1 °F 58.5 °F 88% 29.86 in 10.0 mi Calm Calm - N/A   Clear
10:55 PM 62.1 °F 59.2 °F 90% 29.87 in 10.0 mi Calm Calm - N/A   Clear
11:15 PM 61.2 °F 57.9 °F 89% 29.87 in 10.0 mi Calm Calm - N/A   Clear
11:35 PM 60.4 °F 58.1 °F 92% 29.87 in 10.0 mi Calm Calm - N/A   Clear
11:55 PM 61.5 °F 58.6 °F 90% 29.87 in 10.0 mi South 3.5 mph - N/A   Clear